Time,TemperatureF,DewpointF,PressureIn,WindDirection,WindDirectionDegrees,WindSpeedMPH,WindSpeedGustMPH,Humidity,HourlyPrecipIn,Conditions,Clouds,dailyrainin,SoftwareType,DateUTC
2013-06-26 00:01:00,78.4,71.0,29.94,SW,219,5.0,5.0,78,0.00,RA,,0.00,WeatherDisplay:10.37,2013-06-26 04:01:00,
2013-06-26 00:02:00,78.4,71.0,29.94,SSW,195,8.0,8.0,78,0.00,RA,,0.00,WeatherDisplay:10.37,2013-06-26 04:02:00,
2013-06-26 00:03:00,78.3,70.9,29.94,SSW,195,8.1,8.1,78,0.00,RA,,0.00,WeatherDisplay:10.37,2013-06-26 04:03:00,
2013-06-26 00:06:00,78.2,70.8,29.94,SSW,199,4.0,4.0,78,0.00,RA,,0.00,WeatherDisplay:10.37,2013-06-26 04:06:00,
2013-06-26 00:11:00,78.2,70.8,29.94,SSW,207,4.0,4.0,78,0.00,CLR,,0.00,WeatherDisplay:10.37,2013-06-26 04:11:00,
2013-06-26 00:16:00,78.2,70.8,29.94,SW,219,8.1,8.1,78,0.00,CLR,,0.00,WeatherDisplay:10.37,2013-06-26 04:16:00,
2013-06-26 00:21:00,78.2,70.8,29.94,SSW,207,6.0,6.0,78,0.00,CLR,,0.00,WeatherDisplay:10.37,2013-06-26 04:21:00,
2013-06-26 00:26:00,78.2,71.2,29.94,SSW,205,1.1,1.1,79,0.00,CLR,,0.00,WeatherDisplay:10.37,2013-06-26 04:26:00,
2013-06-26 00:31:00,78.1,71.1,29.95,SW,222,6.0,6.0,79,0.00,CLR,,0.00,WeatherDisplay:10.37,2013-06-26 04:31:00,
2013-06-26 00:36:00,78.0,71.0,29.95,SW,220,6.0,6.0,79,0.00,CLR,,0.00,WeatherDisplay:10.37,2013-06-26 04:36:00,
2013-06-26 00:41:00,78.0,71.0,29.95,SW,224,3.5,3.5,79,0.00,CLR,,0.00,WeatherDisplay:10.37,2013-06-26 04:41:00,
2013-06-26 00:46:00,78.0,71.0,29.95,SW,223,3.5,3.5,79,0.00,CLR,,0.00,WeatherDisplay:10.37,2013-06-26 04:46:00,
2013-06-26 00:51:00,77.9,70.9,29.95,WSW,247,7.0,7.0,79,0.00,CLR,,0.00,WeatherDisplay:10.37,2013-06-26 04:51:00,
2013-06-26 00:56:00,77.8,70.8,29.96,WSW,245,4.0,4.0,79,0.00,CLR,,0.00,WeatherDisplay:10.37,2013-06-26 04:56:00,
2013-06-26 01:01:00,77.6,70.6,29.96,WSW,249,9.2,9.2,79,0.00,FEW,,0.00,WeatherDisplay:10.37,2013-06-26 05:01:00,
2013-06-26 01:06:00,77.6,70.9,29.96,WSW,249,4.0,4.0,80,0.00,FEW,,0.00,WeatherDisplay:10.37,2013-06-26 05:06:00,
2013-06-26 01:11:00,77.5,70.8,29.95,WSW,247,5.0,5.0,80,0.00,FEW,,0.00,WeatherDisplay:10.37,2013-06-26 05:11:00,
2013-06-26 01:16:00,77.3,70.6,29.95,WSW,246,5.8,5.8,80,0.00,FEW,,0.00,WeatherDisplay:10.37,2013-06-26 05:16:00,
2013-06-26 01:21:00,77.2,70.5,29.95,WSW,246,3.5,3.5,80,0.00,FEW,,0.00,WeatherDisplay:10.37,2013-06-26 05:21:00,
2013-06-26 01:26:00,77.2,70.5,29.95,WSW,245,5.8,5.8,80,0.00,FEW,,0.00,WeatherDisplay:10.37,2013-06-26 05:26:00,
2013-06-26 01:31:00,77.1,70.8,29.95,WSW,247,1.1,0.0,81,0.00,FEW,,0.00,WeatherDisplay:10.37,2013-06-26 05:31:00,
2013-06-26 01:36:00,77.1,70.8,29.95,WSW,247,2.0,2.0,81,0.00,FEW,,0.00,WeatherDisplay:10.37,2013-06-26 05:36:00,
2013-06-26 01:41:00,77.0,70.7,29.95,WSW,247,2.3,2.3,81,0.00,FEW,,0.00,WeatherDisplay:10.37,2013-06-26 05:41:00,
2013-06-26 01:46:00,76.9,70.6,29.94,WSW,247,3.5,3.5,81,0.00,FEW,,0.00,WeatherDisplay:10.37,2013-06-26 05:46:00,
2013-06-26 01:51:00,76.8,70.5,29.94,WSW,247,6.0,6.0,81,0.00,FEW,,0.00,WeatherDisplay:10.37,2013-06-26 05:51:00,
2013-06-26 01:56:00,76.9,70.6,29.94,WSW,246,4.0,4.0,81,0.00,FEW,,0.00,WeatherDisplay:10.37,2013-06-26 05:56:00,
2013-06-26 02:01:00,76.8,70.5,29.94,WSW,245,2.3,2.3,81,0.00,BKN,,0.00,WeatherDisplay:10.37,2013-06-26 06:01:00,
2013-06-26 02:06:00,76.7,70.4,29.93,WSW,245,3.5,3.5,81,0.00,BKN,,0.00,WeatherDisplay:10.37,2013-06-26 06:06:00,
2013-06-26 02:11:00,76.5,70.6,29.94,WSW,245,6.0,6.0,82,0.00,BKN,,0.00,WeatherDisplay:10.37,2013-06-26 06:11:00,
2013-06-26 02:16:00,76.4,70.5,29.94,WSW,244,4.0,4.0,82,0.00,BKN,,0.00,WeatherDisplay:10.37,2013-06-26 06:16:00,
2013-06-26 02:21:00,76.4,70.5,29.94,WSW,244,2.0,2.0,82,0.00,BKN,,0.00,WeatherDisplay:10.37,2013-06-26 06:21:00,
2013-06-26 02:26:00,76.2,70.3,29.94,WSW,244,3.5,3.5,82,0.00,BKN,,0.00,WeatherDisplay:10.37,2013-06-26 06:26:00,
2013-06-26 02:31:00,76.1,70.2,29.94,WSW,244,3.5,3.5,82,0.00,BKN,,0.00,WeatherDisplay:10.37,2013-06-26 06:31:00,
2013-06-26 02:36:00,76.1,70.2,29.93,WSW,244,1.1,1.1,82,0.00,BKN,,0.00,WeatherDisplay:10.37,2013-06-26 06:36:00,
2013-06-26 02:41:00,76.0,70.1,29.93,WSW,243,4.0,4.0,82,0.00,BKN,,0.00,WeatherDisplay:10.37,2013-06-26 06:41:00,
2013-06-26 02:46:00,75.9,70.4,29.93,WSW,243,3.5,3.5,83,0.00,BKN,,0.00,WeatherDisplay:10.37,2013-06-26 06:46:00,
2013-06-26 02:51:00,75.8,70.3,29.93,WSW,243,4.0,4.0,83,0.00,BKN,,0.00,WeatherDisplay:10.37,2013-06-26 06:51:00,
2013-06-26 02:56:00,75.7,70.2,29.94,WSW,243,0.0,0.0,83,0.00,BKN,,0.00,WeatherDisplay:10.37,2013-06-26 06:56:00,
2013-06-26 03:01:00,75.6,70.1,29.94,WSW,243,5.0,5.0,83,0.00,CLR,,0.00,WeatherDisplay:10.37,2013-06-26 07:01:00,
2013-06-26 03:06:00,75.6,70.1,29.94,WSW,243,4.6,4.6,83,0.00,CLR,,0.00,WeatherDisplay:10.37,2013-06-26 07:06:00,
2013-06-26 03:11:00,75.4,69.9,29.94,WSW,243,1.1,1.1,83,0.00,CLR,,0.00,WeatherDisplay:10.37,2013-06-26 07:11:00,
2013-06-26 03:16:00,75.3,70.1,29.94,WSW,243,0.0,0.0,84,0.00,CLR,,0.00,WeatherDisplay:10.37,2013-06-26 07:16:00,
2013-06-26 03:21:00,75.1,69.9,29.94,WSW,243,2.3,2.3,84,0.00,CLR,,0.00,WeatherDisplay:10.37,2013-06-26 07:21:00,
2013-06-26 03:26:00,75.1,69.9,29.94,WSW,243,0.0,0.0,84,0.00,CLR,,0.00,WeatherDisplay:10.37,2013-06-26 07:26:00,
2013-06-26 03:31:00,74.9,69.7,29.94,WSW,243,4.0,4.0,84,0.00,CLR,,0.00,WeatherDisplay:10.37,2013-06-26 07:31:00,
2013-06-26 03:36:00,74.9,69.7,29.94,WSW,243,3.0,3.0,84,0.00,CLR,,0.00,WeatherDisplay:10.37,2013-06-26 07:36:00,
2013-06-26 03:41:00,75.0,69.8,29.94,WSW,243,3.5,3.5,84,0.00,CLR,,0.00,WeatherDisplay:10.37,2013-06-26 07:41:00,
2013-06-26 03:46:00,75.0,69.8,29.94,WSW,243,2.3,2.3,84,0.00,CLR,,0.00,WeatherDisplay:10.37,2013-06-26 07:46:00,
2013-06-26 03:51:00,75.0,69.8,29.94,WSW,243,3.5,3.5,84,0.00,CLR,,0.00,WeatherDisplay:10.37,2013-06-26 07:51:00,
2013-06-26 03:56:00,75.1,69.9,29.94,WSW,243,5.0,5.0,84,0.00,CLR,,0.00,WeatherDisplay:10.37,2013-06-26 07:56:00,
2013-06-26 04:01:00,75.1,69.9,29.94,WSW,243,6.0,6.0,84,0.00,CLR,,0.00,WeatherDisplay:10.37,2013-06-26 08:01:00,
2013-06-26 04:06:00,75.1,69.9,29.93,WSW,243,3.0,3.0,84,0.00,CLR,,0.00,WeatherDisplay:10.37,2013-06-26 08:06:00,
2013-06-26 04:11:00,75.1,69.9,29.93,WSW,243,4.0,4.0,84,0.00,CLR,,0.00,WeatherDisplay:10.37,2013-06-26 08:11:00,
2013-06-26 04:16:00,75.1,69.9,29.93,WSW,243,4.0,4.0,84,0.00,CLR,,0.00,WeatherDisplay:10.37,2013-06-26 08:16:00,
2013-06-26 04:21:00,75.0,69.8,29.93,WSW,243,5.0,5.0,84,0.00,CLR,,0.00,WeatherDisplay:10.37,2013-06-26 08:21:00,
2013-06-26 04:26:00,74.9,69.7,29.93,WSW,242,4.0,4.0,84,0.00,CLR,,0.00,WeatherDisplay:10.37,2013-06-26 08:26:00,
2013-06-26 04:31:00,74.9,69.7,29.93,WSW,242,2.3,2.3,84,0.00,CLR,,0.00,WeatherDisplay:10.37,2013-06-26 08:31:00,
2013-06-26 04:36:00,74.8,69.6,29.92,WSW,242,4.0,4.0,84,0.00,CLR,,0.00,WeatherDisplay:10.37,2013-06-26 08:36:00,
2013-06-26 04:41:00,74.8,69.6,29.93,WSW,242,5.0,5.0,84,0.00,CLR,,0.00,WeatherDisplay:10.37,2013-06-26 08:41:00,
2013-06-26 04:46:00,74.8,69.6,29.93,WSW,242,5.8,5.8,84,0.00,CLR,,0.00,WeatherDisplay:10.37,2013-06-26 08:46:00,
2013-06-26 04:51:00,74.8,69.6,29.93,WSW,241,6.9,6.9,84,0.00,CLR,,0.00,WeatherDisplay:10.37,2013-06-26 08:51:00,
2013-06-26 04:56:00,74.8,69.6,29.93,WSW,242,3.5,3.5,84,0.00,CLR,,0.00,WeatherDisplay:10.37,2013-06-26 08:56:00,
2013-06-26 05:01:00,74.8,69.6,29.93,WSW,240,7.0,7.0,84,0.00,BKN,,0.00,WeatherDisplay:10.37,2013-06-26 09:01:00,
2013-06-26 05:06:00,75.0,69.8,29.94,WSW,240,2.0,2.0,84,0.00,BKN,,0.00,WeatherDisplay:10.37,2013-06-26 09:06:00,
2013-06-26 05:11:00,74.9,69.7,29.94,WSW,248,11.0,11.0,84,0.00,BKN,,0.00,WeatherDisplay:10.37,2013-06-26 09:11:00,
2013-06-26 05:16:00,74.6,68.0,29.95,NW,321,13.0,13.0,80,0.00,BKN,,0.00,WeatherDisplay:10.37,2013-06-26 09:16:00,
2013-06-26 05:21:00,74.3,67.0,29.96,NNW,341,5.8,5.8,78,0.00,BKN,,0.00,WeatherDisplay:10.37,2013-06-26 09:21:00,
2013-06-26 05:26:00,74.2,66.9,29.95,NNE,33,10.0,10.0,78,0.00,BKN,,0.00,WeatherDisplay:10.37,2013-06-26 09:26:00,
2013-06-26 05:31:00,73.7,66.0,29.96,NNE,25,17.3,17.3,77,0.00,BKN,,0.00,WeatherDisplay:10.37,2013-06-26 09:31:00,
2013-06-26 05:36:00,72.6,65.3,29.97,NNE,28,3.5,3.5,78,0.00,BKN,,0.00,WeatherDisplay:10.37,2013-06-26 09:36:00,
2013-06-26 05:41:00,71.3,64.8,29.97,NNE,19,7.0,7.0,80,0.01,RA,,0.01,WeatherDisplay:10.37,2013-06-26 09:41:00,
2013-06-26 05:46:00,70.4,64.6,29.96,NNE,19,3.5,3.5,82,0.01,RA,,0.01,WeatherDisplay:10.37,2013-06-26 09:46:00,
2013-06-26 05:51:00,69.9,64.5,29.95,NNE,19,3.5,3.5,83,0.01,BKN,,0.01,WeatherDisplay:10.37,2013-06-26 09:51:00,
2013-06-26 05:56:00,69.5,64.5,29.95,NNE,18,1.1,1.1,84,0.01,BKN,,0.01,WeatherDisplay:10.37,2013-06-26 09:56:00,
2013-06-26 06:01:00,69.4,64.4,29.95,NNE,19,0.0,0.0,84,0.01,BKN,,0.01,WeatherDisplay:10.37,2013-06-26 10:01:00,
2013-06-26 06:06:00,69.2,64.5,29.96,NNE,18,0.0,0.0,85,0.01,-RA,,0.01,WeatherDisplay:10.37,2013-06-26 10:06:00,
2013-06-26 06:11:00,69.1,64.4,29.96,NNE,19,2.0,2.0,85,0.01,-RA,,0.01,WeatherDisplay:10.37,2013-06-26 10:11:00,
2013-06-26 06:16:00,69.0,64.6,29.96,NNE,19,2.0,2.0,86,0.01,-RA,,0.01,WeatherDisplay:10.37,2013-06-26 10:16:00,
2013-06-26 06:21:00,68.9,64.5,29.96,NNE,19,1.1,1.1,86,0.01,-RA,,0.01,WeatherDisplay:10.37,2013-06-26 10:21:00,
2013-06-26 06:26:00,68.8,64.4,29.97,NNE,16,3.5,3.5,86,0.01,-RA,,0.01,WeatherDisplay:10.37,2013-06-26 10:26:00,
2013-06-26 06:31:00,68.7,64.3,29.97,NNE,17,2.3,2.3,86,0.01,-RA,,0.01,WeatherDisplay:10.37,2013-06-26 10:31:00,
2013-06-26 06:36:00,68.6,64.6,29.97,NNE,20,3.5,3.5,87,0.01,-RA,,0.01,WeatherDisplay:10.37,2013-06-26 10:36:00,
2013-06-26 06:41:00,68.5,64.5,29.97,NNE,20,2.3,2.3,87,0.00,-RA,,0.01,WeatherDisplay:10.37,2013-06-26 10:41:00,
2013-06-26 06:46:00,68.3,64.3,29.97,West,270,8.0,8.0,87,0.00,-RA,,0.01,WeatherDisplay:10.37,2013-06-26 10:46:00,
2013-06-26 06:51:00,68.2,63.9,29.97,NW,320,4.0,4.0,86,0.00,-RA,,0.01,WeatherDisplay:10.37,2013-06-26 10:51:00,
2013-06-26 06:56:00,68.1,64.1,29.96,NW,316,0.0,0.0,87,0.07,-RA,,0.09,WeatherDisplay:10.37,2013-06-26 10:56:00,
2013-06-26 07:01:00,68.1,64.1,29.95,NW,316,0.0,0.0,87,0.09, +RA,,0.10,WeatherDisplay:10.37,2013-06-26 11:01:00,
2013-06-26 07:06:00,68.1,64.1,29.95,NW,316,1.0,0.0,87,0.09, +RA,,0.10,WeatherDisplay:10.37,2013-06-26 11:06:00,
2013-06-26 07:11:00,68.1,64.4,29.94,NW,310,5.0,5.0,88,0.09, +RA,,0.10,WeatherDisplay:10.37,2013-06-26 11:11:00,
2013-06-26 07:16:00,67.9,64.2,29.95,SSW,205,5.0,5.0,88,0.09, +RA,,0.10,WeatherDisplay:10.37,2013-06-26 11:16:00,
2013-06-26 07:21:00,67.9,64.5,29.94,SSW,204,4.6,4.6,89,0.10, +RA,,0.11,WeatherDisplay:10.37,2013-06-26 11:21:00,
2013-06-26 07:26:00,67.9,64.5,29.94,SSW,198,5.8,5.8,89,0.11, +RA,,0.12,WeatherDisplay:10.37,2013-06-26 11:26:00,
2013-06-26 07:31:00,67.9,64.5,29.95,SSW,200,3.5,3.5,89,0.11, +RA,,0.12,WeatherDisplay:10.37,2013-06-26 11:31:00,
2013-06-26 07:36:00,68.0,64.6,29.96,SSW,200,0.0,0.0,89,0.11, +RA,,0.12,WeatherDisplay:10.37,2013-06-26 11:36:00,
2013-06-26 07:41:00,68.0,65.0,29.95,SSW,200,3.0,3.0,90,0.11, +RA,,0.12,WeatherDisplay:10.37,2013-06-26 11:41:00,
2013-06-26 07:46:00,68.1,65.1,29.94,SSW,200,0.0,0.0,90,0.11, +RA,,0.12,WeatherDisplay:10.37,2013-06-26 11:46:00,
2013-06-26 07:51:00,68.3,65.3,29.94,SSW,200,0.0,0.0,90,0.11, +RA,,0.12,WeatherDisplay:10.37,2013-06-26 11:51:00,
2013-06-26 07:56:00,68.5,65.4,29.93,SSW,200,3.0,3.0,90,0.04, +RA,,0.12,WeatherDisplay:10.37,2013-06-26 11:56:00,
2013-06-26 08:01:00,68.6,65.5,29.93,SSW,200,3.5,0.0,90,0.02, +RA,,0.12,WeatherDisplay:10.37,2013-06-26 12:01:00,
2013-06-26 08:06:00,68.9,65.8,29.93,SSW,200,3.5,3.5,90,0.02,-RA,,0.12,WeatherDisplay:10.37,2013-06-26 12:06:00,
2013-06-26 08:11:00,69.1,66.0,29.92,SSW,199,0.0,0.0,90,0.02,-RA,,0.12,WeatherDisplay:10.37,2013-06-26 12:11:00,
2013-06-26 08:16:00,69.3,66.2,29.92,SSW,200,1.0,0.0,90,0.02,-RA,,0.12,WeatherDisplay:10.37,2013-06-26 12:16:00,
2013-06-26 08:21:00,69.6,66.5,29.92,SSW,199,3.5,3.5,90,0.01,-RA,,0.12,WeatherDisplay:10.37,2013-06-26 12:21:00,
2013-06-26 08:26:00,69.9,66.8,29.93,SSW,200,4.0,4.0,90,0.00,-RA,,0.12,WeatherDisplay:10.37,2013-06-26 12:26:00,
2013-06-26 08:31:00,70.2,67.1,29.93,SSW,200,3.5,3.5,90,0.00,-RA,,0.12,WeatherDisplay:10.37,2013-06-26 12:31:00,
2013-06-26 08:36:00,70.5,67.4,29.93,SSW,207,2.3,2.3,90,0.00,-RA,,0.12,WeatherDisplay:10.37,2013-06-26 12:36:00,
2013-06-26 08:41:00,70.7,67.6,29.93,SSW,207,3.5,3.5,90,0.00,-RA,,0.12,WeatherDisplay:10.37,2013-06-26 12:41:00,
2013-06-26 08:46:00,70.9,67.8,29.93,SW,221,6.0,6.0,90,0.00,-RA,,0.12,WeatherDisplay:10.37,2013-06-26 12:46:00,
2013-06-26 08:51:00,71.0,67.9,29.93,SW,222,3.5,3.5,90,0.00,-RA,,0.12,WeatherDisplay:10.37,2013-06-26 12:51:00,
2013-06-26 08:56:00,70.9,67.5,29.93,SW,229,6.0,6.0,89,0.00,-RA,,0.12,WeatherDisplay:10.37,2013-06-26 12:56:00,
2013-06-26 09:01:00,71.0,67.6,29.93,SW,230,4.6,4.6,89,0.00,FEW,,0.12,WeatherDisplay:10.37,2013-06-26 13:01:00,
2013-06-26 09:06:00,71.1,67.7,29.93,SW,233,6.0,6.0,89,0.00,FEW,,0.12,WeatherDisplay:10.37,2013-06-26 13:06:00,
2013-06-26 09:11:00,71.3,67.9,29.93,SW,234,7.0,7.0,89,0.00,FEW,,0.12,WeatherDisplay:10.37,2013-06-26 13:11:00,
2013-06-26 09:16:00,71.5,68.1,29.93,WSW,245,5.0,5.0,89,0.00,FEW,,0.12,WeatherDisplay:10.37,2013-06-26 13:16:00,
2013-06-26 09:21:00,71.9,68.2,29.92,SW,221,5.8,5.8,88,0.00,FEW,,0.12,WeatherDisplay:10.37,2013-06-26 13:21:00,
2013-06-26 09:26:00,72.3,68.5,29.92,SW,225,8.0,8.0,88,0.00,FEW,,0.12,WeatherDisplay:10.37,2013-06-26 13:26:00,
2013-06-26 09:31:00,72.9,68.5,29.92,SW,234,11.0,11.0,86,0.00,FEW,,0.12,WeatherDisplay:10.37,2013-06-26 13:31:00,
2013-06-26 09:36:00,73.4,68.6,29.93,WSW,252,9.0,9.0,85,0.00,FEW,,0.12,WeatherDisplay:10.37,2013-06-26 13:36:00,
2013-06-26 09:41:00,73.3,68.2,29.93,SW,229,10.4,10.4,84,0.00,FEW,,0.12,WeatherDisplay:10.37,2013-06-26 13:41:00,
2013-06-26 09:46:00,73.5,68.4,29.93,SW,230,6.0,6.0,84,0.00,FEW,,0.12,WeatherDisplay:10.37,2013-06-26 13:46:00,
2013-06-26 09:51:00,73.5,68.4,29.94,WSW,239,6.9,6.9,84,0.00,FEW,,0.12,WeatherDisplay:10.37,2013-06-26 13:51:00,
2013-06-26 09:56:00,73.4,68.3,29.94,WSW,247,8.0,8.0,84,0.00,FEW,,0.12,WeatherDisplay:10.37,2013-06-26 13:56:00,
2013-06-26 10:01:00,73.3,67.8,29.94,West,260,6.0,6.0,83,0.00,OVC,,0.12,WeatherDisplay:10.37,2013-06-26 14:01:00,
2013-06-26 10:06:00,73.3,67.8,29.93,WSW,239,6.9,6.9,83,0.00,OVC,,0.12,WeatherDisplay:10.37,2013-06-26 14:06:00,
2013-06-26 10:11:00,73.5,68.4,29.94,WSW,240,6.0,6.0,84,0.00,OVC,,0.12,WeatherDisplay:10.37,2013-06-26 14:11:00,
2013-06-26 10:16:00,73.6,68.1,29.94,SW,232,8.1,8.1,83,0.00,OVC,,0.12,WeatherDisplay:10.37,2013-06-26 14:16:00,
2013-06-26 10:21:00,73.7,68.2,29.94,WSW,239,9.2,9.2,83,0.00,OVC,,0.12,WeatherDisplay:10.37,2013-06-26 14:21:00,
2013-06-26 10:26:00,73.8,68.3,29.94,WSW,245,6.0,6.0,83,0.00,OVC,,0.12,WeatherDisplay:10.37,2013-06-26 14:26:00,
2013-06-26 10:31:00,74.0,68.5,29.94,SW,233,8.0,8.0,83,0.00,OVC,,0.12,WeatherDisplay:10.37,2013-06-26 14:31:00,
2013-06-26 10:36:00,74.3,68.4,29.94,WSW,237,7.0,7.0,82,0.00,OVC,,0.12,WeatherDisplay:10.37,2013-06-26 14:36:00,
2013-06-26 10:41:00,74.7,68.8,29.94,WSW,237,3.5,3.5,82,0.00,OVC,,0.12,WeatherDisplay:10.37,2013-06-26 14:41:00,
2013-06-26 10:46:00,75.1,69.2,29.94,WSW,237,7.0,7.0,82,0.00,OVC,,0.12,WeatherDisplay:10.37,2013-06-26 14:46:00,
2013-06-26 10:51:00,75.5,69.3,29.94,SW,236,8.0,8.0,81,0.00,OVC,,0.12,WeatherDisplay:10.37,2013-06-26 14:51:00,
2013-06-26 10:56:00,75.8,69.6,29.94,WSW,241,5.0,5.0,81,0.00,OVC,,0.12,WeatherDisplay:10.37,2013-06-26 14:56:00,
2013-06-26 11:01:00,76.1,69.8,29.94,WSW,240,5.0,5.0,81,0.00,BKN,,0.12,WeatherDisplay:10.37,2013-06-26 15:01:00,
2013-06-26 11:06:00,76.4,70.1,29.94,WSW,240,9.2,9.2,81,0.00,BKN,,0.12,WeatherDisplay:10.37,2013-06-26 15:06:00,
2013-06-26 11:11:00,76.8,70.2,29.94,WSW,241,6.0,6.0,80,0.00,BKN,,0.12,WeatherDisplay:10.37,2013-06-26 15:11:00,
2013-06-26 11:16:00,77.3,70.3,29.94,WSW,247,6.0,6.0,79,0.00,BKN,,0.12,WeatherDisplay:10.37,2013-06-26 15:16:00,
2013-06-26 11:21:00,77.8,70.8,29.93,WSW,239,7.0,7.0,79,0.00,BKN,,0.12,WeatherDisplay:10.37,2013-06-26 15:21:00,
2013-06-26 11:26:00,78.5,71.1,29.93,WSW,237,4.0,4.0,78,0.00,BKN,,0.12,WeatherDisplay:10.37,2013-06-26 15:26:00,
2013-06-26 11:31:00,79.2,71.7,29.94,WSW,246,5.0,5.0,78,0.00,BKN,,0.12,WeatherDisplay:10.37,2013-06-26 15:31:00,
2013-06-26 11:36:00,79.8,71.6,29.94,WSW,253,10.0,10.0,76,0.00,BKN,,0.12,WeatherDisplay:10.37,2013-06-26 15:36:00,
2013-06-26 11:41:00,79.9,71.3,29.94,WSW,257,9.2,9.2,75,0.00,BKN,,0.12,WeatherDisplay:10.37,2013-06-26 15:41:00,
2013-06-26 11:46:00,80.2,71.2,29.94,WSW,244,8.1,8.1,74,0.00,BKN,,0.12,WeatherDisplay:10.37,2013-06-26 15:46:00,
2013-06-26 11:51:00,80.5,71.4,29.94,WSW,240,9.0,9.0,74,0.00,BKN,,0.12,WeatherDisplay:10.37,2013-06-26 15:51:00,
2013-06-26 11:56:00,81.0,71.9,29.93,West,268,4.6,4.6,74,0.00,BKN,,0.12,WeatherDisplay:10.37,2013-06-26 15:56:00,
2013-06-26 12:01:00,81.3,71.4,29.93,NW,321,10.4,10.4,72,0.00,FEW,,0.12,WeatherDisplay:10.37,2013-06-26 16:01:00,
2013-06-26 12:06:00,81.5,71.6,29.93,West,264,8.1,8.1,72,0.00,FEW,,0.12,WeatherDisplay:10.37,2013-06-26 16:06:00,
2013-06-26 12:11:00,81.7,71.4,29.93,WSW,251,10.4,10.4,71,0.00,FEW,,0.12,WeatherDisplay:10.37,2013-06-26 16:11:00,
2013-06-26 12:16:00,82.0,71.7,29.93,SW,231,12.7,12.7,71,0.00,FEW,,0.12,WeatherDisplay:10.37,2013-06-26 16:16:00,
2013-06-26 12:21:00,82.5,72.6,29.93,WSW,257,6.0,6.0,72,0.00,FEW,,0.12,WeatherDisplay:10.37,2013-06-26 16:21:00,
2013-06-26 12:26:00,82.5,72.1,29.93,WSW,249,8.0,8.0,71,0.00,FEW,,0.12,WeatherDisplay:10.37,2013-06-26 16:26:00,
2013-06-26 12:31:00,82.4,72.0,29.93,West,274,9.0,9.0,71,0.00,FEW,,0.12,WeatherDisplay:10.37,2013-06-26 16:31:00,
2013-06-26 12:36:00,82.6,72.2,29.93,West,263,6.0,6.0,71,0.00,FEW,,0.12,WeatherDisplay:10.37,2013-06-26 16:36:00,
2013-06-26 12:41:00,82.5,71.7,29.93,WSW,240,8.1,8.1,70,0.00,FEW,,0.12,WeatherDisplay:10.37,2013-06-26 16:41:00,
2013-06-26 12:46:00,82.2,71.9,29.92,SW,232,9.2,9.2,71,0.00,FEW,,0.12,WeatherDisplay:10.37,2013-06-26 16:46:00,
2013-06-26 12:51:00,82.2,71.9,29.92,SW,226,11.5,11.5,71,0.00,FEW,,0.12,WeatherDisplay:10.37,2013-06-26 16:51:00,
2013-06-26 12:56:00,82.3,72.0,29.92,WSW,258,10.4,10.4,71,0.00,FEW,,0.12,WeatherDisplay:10.37,2013-06-26 16:56:00,
2013-06-26 13:01:00,82.5,71.7,29.92,WSW,248,8.1,8.1,70,0.00,FEW,,0.12,WeatherDisplay:10.37,2013-06-26 17:01:00,
2013-06-26 13:06:00,82.9,72.5,29.92,SW,232,6.0,6.0,71,0.00,FEW,,0.12,WeatherDisplay:10.37,2013-06-26 17:06:00,
2013-06-26 13:11:00,83.2,72.0,29.91,WSW,241,12.7,12.7,69,0.00,FEW,,0.12,WeatherDisplay:10.37,2013-06-26 17:11:00,
2013-06-26 13:16:00,82.9,72.1,29.91,WSW,245,8.1,8.1,70,0.00,FEW,,0.12,WeatherDisplay:10.37,2013-06-26 17:16:00,
2013-06-26 13:21:00,83.0,72.2,29.91,WSW,255,9.0,9.0,70,0.00,FEW,,0.12,WeatherDisplay:10.37,2013-06-26 17:21:00,
2013-06-26 13:26:00,83.1,72.3,29.90,WSW,241,6.9,6.9,70,0.00,FEW,,0.12,WeatherDisplay:10.37,2013-06-26 17:26:00,
2013-06-26 13:31:00,83.8,73.0,29.90,WSW,247,3.5,3.5,70,0.00,FEW,,0.12,WeatherDisplay:10.37,2013-06-26 17:31:00,
2013-06-26 13:36:00,84.4,72.2,29.90,SW,234,10.4,10.4,67,0.00,FEW,,0.12,WeatherDisplay:10.37,2013-06-26 17:36:00,
2013-06-26 13:41:00,84.6,72.0,29.89,SW,233,8.1,8.1,66,0.00,FEW,,0.12,WeatherDisplay:10.37,2013-06-26 17:41:00,
2013-06-26 13:46:00,84.5,72.3,29.89,SW,236,7.0,7.0,67,0.00,FEW,,0.12,WeatherDisplay:10.37,2013-06-26 17:46:00,
2013-06-26 13:51:00,84.6,71.5,29.89,WSW,254,9.2,9.2,65,0.00,FEW,,0.12,WeatherDisplay:10.37,2013-06-26 17:51:00,
2013-06-26 13:56:00,84.7,72.1,29.89,WSW,237,6.9,6.9,66,0.00,FEW,,0.12,WeatherDisplay:10.37,2013-06-26 17:56:00,
2013-06-26 14:02:00,85.4,71.8,29.89,SW,233,12.0,12.0,64,0.00,FEW,,0.12,WeatherDisplay:10.37,2013-06-26 18:02:00,
2013-06-26 14:07:00,85.0,71.0,29.88,SW,230,11.5,11.5,63,0.00,FEW,,0.12,WeatherDisplay:10.37,2013-06-26 18:07:00,
2013-06-26 14:12:00,84.9,70.4,29.88,SW,228,10.4,10.4,62,0.00,FEW,,0.12,WeatherDisplay:10.37,2013-06-26 18:12:00,
2013-06-26 14:17:00,85.0,71.0,29.88,West,261,7.0,7.0,63,0.00,FEW,,0.12,WeatherDisplay:10.37,2013-06-26 18:17:00,
2013-06-26 14:22:00,84.8,70.8,29.88,WSW,240,6.9,6.9,63,0.00,FEW,,0.12,WeatherDisplay:10.37,2013-06-26 18:22:00,
2013-06-26 14:27:00,85.0,71.9,29.88,WSW,251,7.0,7.0,65,0.00,FEW,,0.12,WeatherDisplay:10.37,2013-06-26 18:27:00,
2013-06-26 14:32:00,85.7,72.1,29.88,SSW,213,12.0,12.0,64,0.00,FEW,,0.12,WeatherDisplay:10.37,2013-06-26 18:32:00,
2013-06-26 14:37:00,85.9,70.9,29.88,SW,234,14.0,14.0,61,0.00,FEW,,0.12,WeatherDisplay:10.37,2013-06-26 18:37:00,
2013-06-26 14:42:00,86.0,71.9,29.88,West,276,8.1,8.1,63,0.00,FEW,,0.12,WeatherDisplay:10.37,2013-06-26 18:42:00,
2013-06-26 14:47:00,86.1,71.1,29.88,WSW,252,10.0,10.0,61,0.00,FEW,,0.12,WeatherDisplay:10.37,2013-06-26 18:47:00,
2013-06-26 14:52:00,85.9,70.9,29.88,WSW,242,13.0,13.0,61,0.00,FEW,,0.12,WeatherDisplay:10.37,2013-06-26 18:52:00,
2013-06-26 14:57:00,85.7,70.2,29.88,SW,228,10.4,10.4,60,0.00,FEW,,0.12,WeatherDisplay:10.37,2013-06-26 18:57:00,
2013-06-26 15:02:00,85.5,71.0,29.87,WSW,243,10.0,10.0,62,0.00,CLR,,0.12,WeatherDisplay:10.37,2013-06-26 19:02:00,
2013-06-26 15:07:00,85.3,71.3,29.87,WSW,245,7.0,7.0,63,0.00,CLR,,0.12,WeatherDisplay:10.37,2013-06-26 19:07:00,
2013-06-26 15:12:00,85.6,71.1,29.86,SW,232,9.2,9.2,62,0.00,CLR,,0.12,WeatherDisplay:10.37,2013-06-26 19:12:00,
2013-06-26 15:17:00,85.4,71.8,29.86,WSW,245,4.6,4.6,64,0.00,CLR,,0.12,WeatherDisplay:10.37,2013-06-26 19:17:00,
2013-06-26 15:22:00,85.6,71.1,29.87,WSW,250,8.1,8.1,62,0.00,CLR,,0.12,WeatherDisplay:10.37,2013-06-26 19:22:00,
2013-06-26 15:27:00,85.3,70.8,29.86,SW,236,10.4,10.4,62,0.00,CLR,,0.12,WeatherDisplay:10.37,2013-06-26 19:27:00,
2013-06-26 15:32:00,85.3,70.3,29.86,WSW,237,11.5,11.5,61,0.00,CLR,,0.12,WeatherDisplay:10.37,2013-06-26 19:32:00,
2013-06-26 15:37:00,85.2,71.2,29.86,West,261,9.2,9.2,63,0.00,CLR,,0.12,WeatherDisplay:10.37,2013-06-26 19:37:00,
2013-06-26 15:42:00,85.3,71.3,29.85,WSW,256,8.1,8.1,63,0.00,CLR,,0.12,WeatherDisplay:10.37,2013-06-26 19:42:00,
2013-06-26 15:47:00,85.1,71.1,29.85,WSW,247,8.0,8.0,63,0.00,CLR,,0.12,WeatherDisplay:10.37,2013-06-26 19:47:00,
2013-06-26 15:52:00,84.9,70.4,29.85,SW,234,11.5,11.5,62,0.00,CLR,,0.12,WeatherDisplay:10.37,2013-06-26 19:52:00,
2013-06-26 15:57:00,84.9,70.9,29.85,WSW,251,14.0,14.0,63,0.00,CLR,,0.12,WeatherDisplay:10.37,2013-06-26 19:57:00,
2013-06-26 16:02:00,84.9,70.4,29.84,WSW,245,8.1,8.1,62,0.00,SCT,,0.12,WeatherDisplay:10.37,2013-06-26 20:02:00,
2013-06-26 16:07:00,85.0,71.0,29.84,SW,234,7.0,7.0,63,0.00,SCT,,0.12,WeatherDisplay:10.37,2013-06-26 20:07:00,
2013-06-26 16:09:00,85.1,71.1,29.84,WSW,237,7.0,7.0,63,0.00,SCT,,0.12,WeatherDisplay:10.37,2013-06-26 20:09:00,
2013-06-26 16:14:00,85.2,70.7,29.84,SW,236,10.0,10.0,62,0.00,SCT,,0.12,WeatherDisplay:10.37,2013-06-26 20:14:00,
2013-06-26 16:19:00,85.2,71.2,29.84,SW,225,6.0,6.0,63,0.00,SCT,,0.12,WeatherDisplay:10.37,2013-06-26 20:19:00,
2013-06-26 16:24:00,84.7,71.6,29.84,WSW,241,9.2,9.2,65,0.00,SCT,,0.12,WeatherDisplay:10.37,2013-06-26 20:24:00,
2013-06-26 16:29:00,84.5,71.4,29.84,WSW,243,10.0,10.0,65,0.00,SCT,,0.12,WeatherDisplay:10.37,2013-06-26 20:29:00,
2013-06-26 16:34:00,84.3,71.2,29.83,SW,221,8.1,8.1,65,0.00,SCT,,0.12,WeatherDisplay:10.37,2013-06-26 20:34:00,
2013-06-26 16:39:00,84.3,71.7,29.82,WSW,241,11.0,11.0,66,0.00,SCT,,0.12,WeatherDisplay:10.37,2013-06-26 20:39:00,
2013-06-26 16:44:00,84.3,71.7,29.83,SW,228,6.9,6.9,66,0.00,SCT,,0.12,WeatherDisplay:10.37,2013-06-26 20:44:00,
2013-06-26 16:49:00,84.2,71.2,29.83,SW,224,10.4,10.4,65,0.00,SCT,,0.12,WeatherDisplay:10.37,2013-06-26 20:49:00,
2013-06-26 16:54:00,84.3,71.7,29.83,SW,225,6.0,6.0,66,0.00,SCT,,0.12,WeatherDisplay:10.37,2013-06-26 20:54:00,
2013-06-26 16:59:00,83.8,71.7,29.83,WSW,241,5.8,5.8,67,0.00,SCT,,0.12,WeatherDisplay:10.37,2013-06-26 20:59:00,
2013-06-26 17:04:00,83.7,71.6,29.83,SW,236,9.2,9.2,67,0.00,BKN,,0.12,WeatherDisplay:10.37,2013-06-26 21:04:00,
2013-06-26 17:09:00,83.7,72.0,29.83,WSW,254,8.0,8.0,68,0.00,BKN,,0.12,WeatherDisplay:10.37,2013-06-26 21:09:00,
2013-06-26 17:14:00,83.7,71.6,29.82,WSW,255,7.0,7.0,67,0.00,BKN,,0.12,WeatherDisplay:10.37,2013-06-26 21:14:00,
2013-06-26 17:19:00,83.7,71.6,29.82,SW,214,10.4,10.4,67,0.00,BKN,,0.12,WeatherDisplay:10.37,2013-06-26 21:19:00,
2013-06-26 17:24:00,83.8,71.2,29.82,WSW,244,6.0,6.0,66,0.00,BKN,,0.12,WeatherDisplay:10.37,2013-06-26 21:24:00,
2013-06-26 17:29:00,83.8,71.7,29.81,WSW,253,5.8,5.8,67,0.00,BKN,,0.12,WeatherDisplay:10.37,2013-06-26 21:29:00,
2013-06-26 17:34:00,84.0,72.3,29.80,SSW,213,2.3,2.3,68,0.00,BKN,,0.12,WeatherDisplay:10.37,2013-06-26 21:34:00,
2013-06-26 17:39:00,84.2,72.0,29.80,SSW,202,3.5,3.5,67,0.00,BKN,,0.12,WeatherDisplay:10.37,2013-06-26 21:39:00,
2013-06-26 17:44:00,84.2,72.5,29.80,SW,236,6.0,6.0,68,0.00,BKN,,0.12,WeatherDisplay:10.37,2013-06-26 21:44:00,
2013-06-26 17:49:00,84.0,71.9,29.79,South,188,7.0,7.0,67,0.00,BKN,,0.12,WeatherDisplay:10.37,2013-06-26 21:49:00,
2013-06-26 17:54:00,83.8,71.7,29.79,SW,232,8.1,8.1,67,0.00,BKN,,0.12,WeatherDisplay:10.37,2013-06-26 21:54:00,
2013-06-26 17:59:00,83.6,71.5,29.78,SW,236,12.0,12.0,67,0.00,BKN,,0.12,WeatherDisplay:10.37,2013-06-26 21:59:00,
2013-06-26 18:04:00,83.4,71.3,29.79,WSW,251,1.1,0.0,67,0.00,BKN,,0.12,WeatherDisplay:10.37,2013-06-26 22:04:00,
2013-06-26 18:06:00,83.4,71.7,29.80,WSW,251,1.1,1.1,68,0.00,BKN,,0.12,WeatherDisplay:10.37,2013-06-26 22:06:00,
2013-06-26 18:11:00,82.5,70.4,29.86,WNW,296,19.6,19.6,67,0.00,BKN,,0.12,WeatherDisplay:10.37,2013-06-26 22:11:00,
2013-06-26 18:16:00,74.1,65.7,29.86,NNE,21,7.0,7.0,75,0.23,RA,,0.35,WeatherDisplay:10.37,2013-06-26 22:16:00,
2013-06-26 18:21:00,70.3,64.2,29.87,NNE,27,8.0,8.0,81,0.26,RA,,0.38,WeatherDisplay:10.37,2013-06-26 22:21:00,
2013-06-26 18:26:00,68.5,63.8,29.87,NNE,12,14.0,14.0,85,0.32,RA,,0.46,WeatherDisplay:10.37,2013-06-26 22:26:00,
2013-06-26 18:31:00,67.7,63.4,29.88,NNE,24,8.1,8.1,86,0.46,RA,,0.60,WeatherDisplay:10.37,2013-06-26 22:31:00,
2013-06-26 18:36:00,67.3,63.3,29.86,NE,56,6.9,6.9,87,0.53,RA,,0.65,WeatherDisplay:10.37,2013-06-26 22:36:00,
2013-06-26 18:41:00,67.3,63.6,29.86,NNE,31,8.1,8.1,88,0.54,RA,,0.66,WeatherDisplay:10.37,2013-06-26 22:41:00,
2013-06-26 18:46:00,67.3,63.6,29.85,NNE,31,1.1,0.0,88,0.54,RA,,0.66,WeatherDisplay:10.37,2013-06-26 22:46:00,
2013-06-26 18:51:00,67.3,63.9,29.84,NNE,31,0.0,0.0,89,0.54,BKN,,0.66,WeatherDisplay:10.37,2013-06-26 22:51:00,
2013-06-26 18:56:00,67.4,64.0,29.85,NNE,31,2.3,2.3,89,0.54,BKN,,0.66,WeatherDisplay:10.37,2013-06-26 22:56:00,
2013-06-26 19:01:00,67.5,64.1,29.85,NNE,31,0.0,0.0,89,0.54,BKN,,0.66,WeatherDisplay:10.37,2013-06-26 23:01:00,
2013-06-26 19:06:00,67.6,64.6,29.86,NNE,31,1.0,1.0,90,0.54,-RA,,0.66,WeatherDisplay:10.37,2013-06-26 23:06:00,
2013-06-26 19:11:00,67.6,64.6,29.87,NNE,29,1.1,1.1,90,0.55,-RA,,0.67,WeatherDisplay:10.37,2013-06-26 23:11:00,
2013-06-26 19:16:00,67.7,64.7,29.86,NW,322,5.0,5.0,90,0.34,-RA,,0.69,WeatherDisplay:10.37,2013-06-26 23:16:00,
2013-06-26 19:21:00,67.5,64.5,29.85,NNW,332,4.0,4.0,90,0.33,-RA,,0.72,WeatherDisplay:10.37,2013-06-26 23:21:00,
2013-06-26 19:26:00,67.2,63.8,29.84,NNE,18,5.0,5.0,89,0.34,-RA,,0.78,WeatherDisplay:10.37,2013-06-26 23:26:00,
2013-06-26 19:31:00,67.3,64.3,29.84,NNE,16,2.3,2.3,90,0.17,-RA,,0.79,WeatherDisplay:10.37,2013-06-26 23:31:00,
2013-06-26 19:36:00,67.2,64.2,29.84,NNE,16,1.1,1.1,90,0.15,-RA,,0.80,WeatherDisplay:10.37,2013-06-26 23:36:00,
2013-06-26 19:41:00,67.2,64.2,29.82,NNE,16,1.1,0.0,90,0.15,-RA,,0.81,WeatherDisplay:10.37,2013-06-26 23:41:00,
2013-06-26 19:46:00,67.5,64.5,29.82,NNE,16,0.0,0.0,90,0.16,-RA,,0.82,WeatherDisplay:10.37,2013-06-26 23:46:00,
2013-06-26 19:51:00,67.6,64.6,29.82,NNE,16,1.1,1.1,90,0.18,-RA,,0.84,WeatherDisplay:10.37,2013-06-26 23:51:00,
2013-06-26 19:56:00,67.7,64.7,29.82,NNE,16,1.1,0.0,90,0.18,-RA,,0.85,WeatherDisplay:10.37,2013-06-26 23:56:00,
2013-06-26 20:01:00,67.7,64.7,29.82,NNE,16,1.0,1.0,90,0.19,-RA,,0.85,WeatherDisplay:10.37,2013-06-27 00:01:00,
2013-06-26 20:06:00,67.9,64.9,29.83,NNE,16,0.0,0.0,90,0.19,-RA,,0.85,WeatherDisplay:10.37,2013-06-27 00:06:00,
2013-06-26 20:11:00,68.0,65.0,29.82,NNE,16,1.1,0.0,90,0.20,-RA,,0.86,WeatherDisplay:10.37,2013-06-27 00:11:00,
2013-06-26 20:16:00,67.9,64.9,29.81,NNE,16,1.0,0.0,90,0.17,-RA,,0.86,WeatherDisplay:10.37,2013-06-27 00:16:00,
2013-06-26 20:21:00,68.0,65.0,29.81,NNE,17,2.3,2.3,90,0.14,-RA,,0.86,WeatherDisplay:10.37,2013-06-27 00:21:00,
2013-06-26 20:26:00,68.1,65.1,29.80,NNE,18,3.5,3.5,90,0.08,-RA,,0.86,WeatherDisplay:10.37,2013-06-27 00:26:00,
2013-06-26 20:31:00,68.1,65.1,29.79,NNE,17,2.3,2.3,90,0.07,-RA,,0.86,WeatherDisplay:10.37,2013-06-27 00:31:00,
2013-06-26 20:36:00,68.1,65.1,29.79,NE,36,0.0,0.0,90,0.06,-RA,,0.86,WeatherDisplay:10.37,2013-06-27 00:36:00,
2013-06-26 20:41:00,68.3,65.3,29.80,NE,36,1.1,0.0,90,0.05,-RA,,0.86,WeatherDisplay:10.37,2013-06-27 00:41:00,
2013-06-26 20:46:00,68.3,65.3,29.79,NE,36,0.0,0.0,90,0.04,-RA,,0.86,WeatherDisplay:10.37,2013-06-27 00:46:00,
2013-06-26 20:51:00,68.2,65.2,29.79,NE,37,0.0,0.0,90,0.02,-RA,,0.86,WeatherDisplay:10.37,2013-06-27 00:51:00,
2013-06-26 21:11:00,68.1,65.1,29.77,NE,38,1.1,0.0,90,0.01,-RA,,0.86,WeatherDisplay:10.37,2013-06-27 01:11:00,
2013-06-26 21:16:00,68.2,65.2,29.77,NE,38,1.1,1.1,90,0.01,-RA,,0.86,WeatherDisplay:10.37,2013-06-27 01:16:00,
2013-06-26 21:21:00,68.2,65.2,29.77,NE,37,0.0,0.0,90,0.00,-RA,,0.86,WeatherDisplay:10.37,2013-06-27 01:21:00,
2013-06-26 21:26:00,68.1,65.1,29.77,NE,41,4.0,4.0,90,0.00,-RA,,0.86,WeatherDisplay:10.37,2013-06-27 01:26:00,
2013-06-26 21:31:00,68.1,65.1,29.77,NE,41,2.3,0.0,90,0.00,-RA,,0.86,WeatherDisplay:10.37,2013-06-27 01:31:00,
2013-06-26 21:36:00,68.2,65.2,29.78,NE,51,2.3,2.3,90,0.00,-RA,,0.86,WeatherDisplay:10.37,2013-06-27 01:36:00,
2013-06-26 21:41:00,68.2,65.2,29.78,NE,51,0.0,0.0,90,0.00,-RA,,0.86,WeatherDisplay:10.37,2013-06-27 01:41:00,
2013-06-26 21:46:00,68.2,65.2,29.78,NE,51,0.0,0.0,90,0.00,-RA,,0.86,WeatherDisplay:10.37,2013-06-27 01:46:00,
2013-06-26 21:51:00,68.1,65.1,29.78,ESE,108,5.0,5.0,90,0.00,-RA,,0.86,WeatherDisplay:10.37,2013-06-27 01:51:00,
2013-06-26 21:56:00,68.1,65.1,29.78,SE,128,4.6,4.6,90,0.00,-RA,,0.86,WeatherDisplay:10.37,2013-06-27 01:56:00,
2013-06-26 22:01:00,67.9,64.9,29.78,South,178,4.0,4.0,90,0.00,BKN,,0.86,WeatherDisplay:10.37,2013-06-27 02:01:00,
2013-06-26 22:06:00,67.7,64.7,29.77,South,181,4.0,4.0,90,0.00,BKN,,0.86,WeatherDisplay:10.37,2013-06-27 02:06:00,
2013-06-26 22:11:00,67.6,64.6,29.78,South,181,2.3,2.3,90,0.00,BKN,,0.86,WeatherDisplay:10.37,2013-06-27 02:11:00,
2013-06-26 22:16:00,67.6,64.6,29.79,South,187,2.3,2.3,90,0.00,BKN,,0.86,WeatherDisplay:10.37,2013-06-27 02:16:00,
2013-06-26 22:21:00,67.7,64.7,29.80,South,186,0.0,0.0,90,0.00,BKN,,0.86,WeatherDisplay:10.37,2013-06-27 02:21:00,
2013-06-26 22:26:00,67.7,64.7,29.81,SE,141,6.0,6.0,90,0.00,BKN,,0.86,WeatherDisplay:10.37,2013-06-27 02:26:00,
2013-06-26 22:31:00,67.8,64.8,29.82,NE,56,7.0,7.0,90,0.00,BKN,,0.86,WeatherDisplay:10.37,2013-06-27 02:31:00,
2013-06-26 22:36:00,67.8,64.8,29.82,NE,52,10.4,10.4,90,0.00,BKN,,0.86,WeatherDisplay:10.37,2013-06-27 02:36:00,
2013-06-26 22:41:00,67.8,64.8,29.81,NNE,26,3.5,3.5,90,0.00,BKN,,0.86,WeatherDisplay:10.37,2013-06-27 02:41:00,
2013-06-26 22:46:00,67.8,64.8,29.80,ENE,58,7.0,7.0,90,0.01,RA,,0.87,WeatherDisplay:10.37,2013-06-27 02:46:00,
2013-06-26 22:51:00,67.7,64.7,29.80,NE,45,9.2,9.2,90,0.01,RA,,0.88,WeatherDisplay:10.37,2013-06-27 02:51:00,
2013-06-26 22:56:00,67.8,64.8,29.80,East,81,11.5,11.5,90,0.12,RA,,0.99,WeatherDisplay:10.37,2013-06-27 02:56:00,
2013-06-26 23:01:00,67.8,64.8,29.82,NE,48,4.6,4.6,90,0.17,RA,,1.03,WeatherDisplay:10.37,2013-06-27 03:01:00,
2013-06-26 23:06:00,67.8,64.8,29.83,NE,47,3.5,3.5,90,0.20,RA,,1.07,WeatherDisplay:10.37,2013-06-27 03:06:00,
2013-06-26 23:11:00,67.9,64.9,29.85,NE,47,5.0,5.0,90,0.29,RA,,1.16,WeatherDisplay:10.37,2013-06-27 03:11:00,
2013-06-26 23:16:00,67.8,64.8,29.84,ENE,72,10.0,10.0,90,0.43,RA,,1.29,WeatherDisplay:10.37,2013-06-27 03:16:00,
2013-06-26 23:21:00,67.7,64.7,29.86,NE,45,0.0,0.0,90,0.66,RA,,1.52,WeatherDisplay:10.37,2013-06-27 03:21:00,
2013-06-26 23:26:00,67.6,64.6,29.86,NE,45,4.0,4.0,90,0.80,RA,,1.70,WeatherDisplay:10.37,2013-06-27 03:26:00,
2013-06-26 23:31:00,67.5,64.5,29.82,NE,56,4.0,4.0,90,1.11,RA,,2.02,WeatherDisplay:10.37,2013-06-27 03:31:00,
2013-06-26 23:36:00,67.7,64.7,29.82,NE,56,1.0,1.0,90,1.31,RA,,2.19,WeatherDisplay:10.37,2013-06-27 03:36:00,
2013-06-26 23:41:00,67.8,64.8,29.82,NE,56,1.0,0.0,90,1.40,RA,,2.27,WeatherDisplay:10.37,2013-06-27 03:41:00,
2013-06-26 23:46:00,67.9,64.9,29.83,NE,56,0.0,0.0,90,1.43,RA,,2.30,WeatherDisplay:10.37,2013-06-27 03:46:00,
2013-06-26 23:51:00,67.9,64.9,29.80,NE,56,0.0,0.0,90,1.42,RA,,2.32,WeatherDisplay:10.37,2013-06-27 03:51:00,
2013-06-26 23:56:00,67.8,64.8,29.78,NE,56,2.0,2.0,90,1.34,RA,,2.32,WeatherDisplay:10.37,2013-06-27 03:56:00,